Presure
122 124 108 125 137 112 132 139 145 143 145 150 146 144 146 133 140 139 147 146 146 142 146 145 145 145 148 140 156 151 144 104 120 120 133 146 146 151 150 149 150 150 153
125 132 134 128 108 112 115 123 123 135 137 134 134 139 139 135 134 138 135 140 135 148 149 137 142 145 98 149 143 97 138 139 133 142 153 144 145 150 136 144 145 147 146
143 124 125 128 115 110 139 121 140 134 135 128 132 139 139 132 132 136 141 135 141 142 146 137 140 142 143 146 143 101 152 153 106 125 151 149 142 144 142 150 151 119 128
142 138 153 102 133 139 105 131 121 131 127 136 137 143 139 132 135 142 133 140 140 136 139 136 104 140 115 144 146 144 139 128 152 147 136 145 143 84 157 155 140 159 111
134 127 124 149 122 132 144 144 136 135 134 129 132 136 136 145 141 137 136 137 130 140 143 138 130 144 150 128 141 148 151 147 132 147 128 142 126 136 97 90 113 107 90
150 160 106 135 149 126 143 144 131 145 124 147 149 142 136 135 134 148 138 141 144 143 140 133 146 131 141 141 146 139 153 142 140 145 151 142 91 85 92 99 143 156 148
125 123 154 150 163 152 166 126 116 101 145 142 131 120 154 155 140 131 143 134 123 147 113 147 92 130 129 139 147 145 135 157 153 153 152 91 102 113 102 90 149 88 142
161 120 132 136 150 147 124 150 165 127 125 131 138 130 172 148 127 136 138 164 160 143 145 155 153 132 143 141 136 136 137 146 80 98 83 93 103 109 92 88 87 93 92
153 140 166 142 135 148 166 136 160 151 162 139 147 141 98 142 161 140 139 144 160 127 165 177 159 156 124 157 137 132 157 79 103 93 97 98 81 107 90 114 108 110 111
173 139 136 161 151 161 143 167 159 134 103 161 171 129 100 129 100 172 159 101 152 163 130 133 133 177 175 146 175 157 136 82 84 88 83 85 78 87 88 97 104 113 119
156 148 162 154 121 154 156 155 123 162 164 113 176 93 92 141 130 148 129 172 152 128 117 116 141 120 141 107 122 82 90 84 90 85 84 87 84 141 106 143 118 166 123
97 97 122 168 141 141 164 167 170 130 154 98 155 168 159 121 173 145 114 171 111 164 111 196 161 146 119 87 85 82 89 89 85 84 88 84 86 145 209 208 108 162 121
170 144 145 146 164 167 155 145 163 161 167 137 157 165 88 173 147 110 170 126 96 184 189 141 202 109 116 88 88 84 95 91 82 77 82 84 225 217 219 117 207 179 105
126 162 159 169 121 156 165 173 164 158 162 145 102 98 154 142 176 170 104 113 189 210 109 104 151 226 95 86 90 84 88 91 90 90 88 84 117 253 244 91 245 119 111
167 157 172 166 163 172 119 131 167 174 170 155 130 99 156 101 164 101 94 180 102 104 101 106 233 126 93 89 93 91 92 93 85 83 84 95 208 205 98 239 95 95 104
173 166 176 176 179 174 153 172 181 162 181 155 184 169 127 155 100 177 106 204 112 95 105 99 146 103 102 94 89 93 90 104 168 205 86 108 119 156 212 184 85 97 117
170 161 158 165 84 165 160 162 180 188 174 172 162 169 119 112 119 95 96 97 97 97 104 110 105 104 101 103 102 96 98 100 101 111 99 123 111 129 193 193 212 176 201
175 174 172 160 178 179 155 177 178 155 180 173 112 104 165 189 212 128 186 95 95 91 95 96 86 102 87 98 94 95 98 190 99 93 89 98 141 119 192 195 117 121 123
170 168 171 172 164 182 165 169 175 177 178 222 231 203 237 234 238 97 123 102 105 102 167 148 105 99 99 102 84 92 100 98 91 90 103 105 205 162 173 201 192 101 198
187 184 182 171 175 180 181 193 218 221 214 215 184 212 231 215 209 127 225 213 99 105 103 104 103 104 101 93 106 181 100 100 98 128 228 184 205 172 199 174 94 101 89
197 206 207 212 216 212 216 214 220 212 208 204 212 205 209 220 235 208 211 149 209 211 100 101 100 109 106 219 102 98 97 100 95 217 222 235 123 120 197 101 193 134 124
208 205 210 208 203 212 231 211 234 226 225 222 216 217 220 210 213 223 208 133 132 204 226 209 201 237 222 105 119 135 129 210 218 252 247 233 144 232 145 228 93 152 192
200 204 205 207 207 211 208 214 209 201 214 210 213 210 211 214 87 87 150 186 213 219 197 219 210 234 130 236 238 228 220 208 143 140 238 230 90 94 104 163 93 225 223
202 207 210 211 223 227 202 204 213 215 210 207 201 195 206 199 203 199 219 214 214 230 219 217 186 218 254 252 235 241 247 196 118 95 184 89 228 234 232 237 235 220 218
210 209 208 224 218 222 219 204 210 219 208 217 215 194 225 217 218 206 207 203 200 202 205 209 210 210 214 261 247 223 241 233 284 229 201 195 204 214 246 239 234 229 229
224 223 221 219 219 222 222 221 211 216 219 213 187 196 205 200 201 209 213 212 212 213 231 187 223 224 237 240 251 240 234 237 219 277 274 240 258 229 223 211 207 216 227
Wind_Speed
38 39 31 39 44 28 41 43 41 42 42 40 42 43 41 42 40 44 43 43 45 45 45 45 45 45 44 38 43 42 42 18 28 28 37 44 44 43 44 46 47 47 48
43 46 48 43 28 29 31 36 36 44 45 44 43 45 45 45 44 47 42 46 44 46 47 44 45 46 15 47 44 16 43 44 39 44 45 46 45 46 39 45 47 48 47
52 45 45 46 35 33 49 37 51 47 47 43 45 50 49 43 43 48 49 45 48 48 49 45 47 48 48 50 48 19 51 52 24 32 49 49 45 48 46 47 49 33 38
54 52 58 31 52 53 33 49 38 50 43 50 50 53 53 47 49 52 45 48 49 46 48 45 22 47 29 49 52 52 45 39 54 51 40 48 47 14 51 53 44 56 30
46 47 47 60 44 55 58 58 53 55 53 46 48 52 51 57 55 51 50 50 42 51 53 48 39 52 56 37 50 56 58 56 39 54 36 50 41 44 21 19 29 29 22
61 59 37 53 63 50 61 63 52 62 44 62 63 60 53 52 51 62 54 55 58 57 53 43 57 40 51 50 56 47 61 54 51 55 60 49 18 15 18 22 52 60 53
50 46 64 63 64 60 63 53 37 39 65 65 48 35 70 70 57 44 59 48 41 63 29 61 21 39 39 50 58 55 45 67 63 61 63 17 26 31 27 21 59 22 52
67 48 56 59 64 65 52 56 68 53 46 54 54 46 68 68 41 51 51 68 74 59 58 67 65 45 54 51 47 48 51 59 13 21 14 21 25 29 26 22 23 28 27
68 65 67 70 59 68 66 61 63 71 65 67 57 67 33 59 67 55 57 56 73 40 78 76 72 67 40 71 50 48 70 13 31 21 24 25 13 34 24 39 37 37 37
69 65 64 70 71 70 69 68 69 59 39 72 73 49 39 56 38 78 67 34 71 79 41 45 47 70 84 54 82 64 53 17 19 21 19 17 17 27 26 35 39 41 42
69 70 70 72 51 72 73 66 47 73 74 51 74 38 34 60 57 70 55 75 72 44 40 38 53 39 55 29 45 23 22 19 23 23 23 23 21 58 39 65 44 67 45
45 43 57 75 65 65 75 74 74 52 70 44 70 79 75 55 79 64 45 85 39 85 39 82 70 64 41 25 26 26 27 26 23 25 30 22 25 60 85 83 42 64 47
78 73 74 68 78 77 78 75 76 77 78 63 73 77 31 79 66 46 83 54 32 75 85 60 77 36 41 30 30 29 32 29 23 23 28 29 87 83 84 50 83 72 45
51 82 81 80 52 80 81 83 82 78 79 68 49 46 73 61 82 85 41 45 80 87 41 38 66 76 35 31 32 31 31 34 34 36 35 32 44 79 79 38 82 54 50
84 81 84 84 83 86 52 61 84 84 82 78 62 50 75 47 81 42 40 84 42 43 39 41 74 46 36 34 36 38 38 38 31 29 34 42 73 73 41 70 44 45 50
84 82 85 86 87 87 77 86 85 80 84 76 82 83 63 73 46 78 48 82 46 40 46 40 52 41 42 39 37 43 38 45 66 76 36 54 57 67 68 60 38 50 60
87 83 83 85 28 87 83 84 86 85 84 86 83 82 63 58 57 47 47 45 46 47 49 51 45 45 44 47 47 44 49 50 49 53 51 60 58 56 76 76 63 63 61
89 89 87 85 89 90 83 89 87 76 89 88 53 53 79 90 88 57 69 48 51 45 49 48 37 47 40 47 45 46 49 72 48 46 42 54 69 63 74 73 65 67 68
88 88 88 89 86 94 87 88 90 92 92 80 69 77 69 70 65 49 62 55 57 55 69 67 59 52 52 55 37 47 53 53 46 44 58 61 74 69 69 72 74 58 63
95 95 94 91 97 98 97 102 72 71 73 71 66 67 65 69 70 49 65 70 54 58 59 60 59 61 56 48 60 62 56 57 56 63 74 68 76 69 76 71 51 56 50
99 95 94 90 84 86 80 76 65 71 71 75 69 71 67 63 58 75 73 66 72 72 56 59 59 71 65 71 57 55 54 58 54 73 72 75 72 56 79 53 78 63 64
90 90 88 86 86 85 73 75 70 65 61 61 61 63 64 67 66 60 65 63 64 72 66 71 74 67 71 64 52 65 63 72 72 70 72 73 72 76 60 80 54 69 80
88 88 88 87 85 86 82 77 75 68 64 63 63 61 61 58 39 40 59 65 69 67 73 66 71 66 64 64 66 70 72 73 62 67 71 72 51 57 72 67 58 80 81
91 93 92 92 94 86 84 81 79 76 71 71 71 68 64 68 69 76 73 74 72 65 67 68 77 68 58 60 65 65 66 70 61 60 72 53 72 76 78 78 80 81 82
96 96 96 101 97 91 87 83 80 77 77 76 72 67 65 64 64 72 76 74 73 73 73 72 70 61 71 59 60 67 64 69 56 73 77 78 79 79 78 81 82 82 83
105 104 102 100 99 95 90 84 82 75 75 78 69 67 67 67 68 69 73 77 72 71 69 70 70 69 66 63 60 62 67 65 72 57 60 74 74 82 84 85 86 86 86
Wind_Direction
234 241 240 245 233 255 240 234 234 234 234 239 235 238 240 252 252 251 247 250 252 258 255 259 261 263 261 265 262 262 263 274 274 280 279 268 271 272 273 274 277 280 281
247 239 242 246 250 260 265 266 260 246 244 251 252 246 244 246 253 252 258 254 260 254 254 267 264 263 255 260 265 269 275 272 282 273 269 273 274 273 281 283 283 283 283
243 252 254 251 247 249 245 265 243 251 252 263 262 252 252 260 260 255 253 259 256 257 255 264 264 265 267 266 268 268 265 265 277 288 270 272 275 280 283 279 280 285 286
246 247 247 238 250 247 243 256 259 260 267 257 256 251 255 262 260 257 266 258 259 264 263 267 265 269 271 271 271 274 280 277 272 274 283 283 284 319 278 280 284 282 295
246 246 252 248 250 253 251 252 256 256 258 269 265 257 262 256 260 262 263 265 268 265 264 268 274 269 267 280 275 273 274 276 279 279 281 284 287 286 299 307 292 296 306
250 252 253 253 248 256 254 255 258 256 262 257 257 258 263 262 265 259 264 265 263 266 271 273 270 273 275 275 274 281 274 280 281 283 282 286 294 307 296 293 288 287 288
251 251 251 252 254 254 255 260 254 245 258 260 262 261 260 260 263 266 264 270 259 267 254 272 272 276 275 274 277 277 275 276 279 278 278 289 290 284 293 306 288 305 292
248 251 256 256 254 255 257 255 256 267 264 267 260 270 259 263 262 268 270 265 265 271 273 272 273 271 277 280 282 282 281 282 287 276 292 293 283 282 300 306 306 305 312
253 255 254 256 258 257 256 257 256 257 258 263 262 266 261 268 258 270 269 267 267 264 269 266 272 275 268 276 276 275 275 266 276 280 282 287 290 289 296 290 290 286 287
255 255 257 254 255 255 259 256 258 262 241 258 257 263 249 259 251 261 259 257 272 269 266 271 270 268 268 280 271 281 270 264 271 275 281 284 273 295 298 293 291 289 285
253 254 253 254 256 256 257 257 254 257 257 252 258 252 261 258 261 269 264 268 264 266 255 257 277 269 276 259 270 264 256 265 263 271 275 282 286 286 289 287 289 283 284
251 248 254 254 257 259 257 259 259 260 264 243 260 260 261 258 265 262 259 266 256 270 265 275 268 272 264 249 254 267 263 265 268 275 280 284 287 287 282 281 290 285 289
254 258 260 255 255 257 259 264 260 259 260 254 261 267 265 267 266 252 267 267 260 276 271 265 277 260 265 253 255 264 269 270 269 277 281 283 279 280 280 286 282 282 293
253 255 257 256 257 260 259 260 261 265 265 258 245 255 267 264 268 267 256 258 277 279 260 259 278 275 252 261 262 267 269 273 274 278 279 283 290 278 279 297 281 282 287
254 259 255 256 258 257 262 264 264 263 265 268 259 256 267 256 268 256 259 275 258 256 260 261 274 262 260 263 266 271 273 277 277 278 284 288 279 281 287 281 297 297 291
253 255 258 259 260 259 265 263 264 265 266 266 267 266 265 266 258 275 252 278 259 265 263 262 265 257 258 266 272 272 274 275 278 279 287 285 280 279 283 286 293 293 282
257 259 259 261 256 263 266 266 266 268 265 266 267 266 256 253 263 259 260 263 264 265 263 260 261 261 261 263 264 270 274 277 280 281 282 279 286 287 282 284 285 281 283
257 258 258 261 264 264 268 268 269 267 271 269 265 258 267 277 276 256 269 261 262 268 267 267 263 262 269 265 268 271 276 276 277 279 283 285 280 284 278 280 286 285 285
256 257 259 262 261 265 263 267 270 272 272 276 279 271 273 271 270 259 260 258 258 261 268 268 265 264 268 268 267 272 275 277 276 281 285 287 274 279 276 277 280 288 280
260 262 262 260 264 264 268 273 269 269 272 275 269 273 274 272 273 265 270 270 262 262 264 266 269 269 268 268 270 274 276 279 281 283 274 273 273 274 274 278 291 294 283
267 268 268 270 271 271 270 268 262 267 271 273 269 268 270 272 277 268 267 266 271 272 264 266 268 270 271 274 272 274 276 279 282 274 274 274 283 276 276 279 278 287 282
266 269 269 269 271 275 271 270 267 266 268 268 268 268 269 269 272 271 272 266 266 274 274 275 277 277 276 274 271 276 275 275 275 274 273 274 280 274 279 274 286 278 278
267 268 268 269 269 271 270 270 268 265 262 261 261 261 263 269 259 261 270 271 271 273 274 274 274 280 274 277 277 275 274 275 278 280 275 275 287 288 290 278 282 274 274
268 270 270 270 271 266 266 268 268 268 266 263 263 266 267 269 269 270 272 272 273 276 275 275 276 279 291 284 279 278 276 276 281 282 278 282 275 273 273 273 273 273 274
269 269 270 269 269 267 264 266 266 266 268 266 265 264 264 267 265 271 273 270 271 273 275 277 278 287 280 293 285 279 279 276 283 276 277 277 278 276 273 273 272 273 273
266 266 266 266 266 265 264 262 264 263 263 265 261 262 266 267 267 271 273 275 276 278 280 277 284 286 292 290 288 283 281 279 276 283 280 279 275 277 276 277 277 277 275